Starlink 4461

operational
NORAD ID: 53503 Int'l Des: 2022-099 Owner: SPXS Country: US Constellation: starlink
LEOCIRCULARRETROGRADE

Starlink 4461について

説明を読み込み中...

リアルタイム位置

3D地球を読み込み中...

次回通過

高度履歴

Altitude vs Time

uPlot chart will show altitude changes over time

軌道要素

1 53503U 22099AQ 26063.00001157 .00499071 00000-0 21835-2 0 9990
2 53503 97.6343 209.7009 0001361 61.1911 352.2824 15.83402457 5591
Epoch: Mar 4, 2026 • Age: 21 hours

現在のステータス

高度 342.5 km
速度 7.70 km/s
衛星直下点 -61.22°S, 110.93°E
打ち上げ日 Aug 12, 2022
運用期間 3.5 years
タイプ internet

技術仕様

分類 Payload
質量 300.00 kg
乾燥質量 275.00 kg
総質量 300.00 kg
長さ 0.20 m
直径 2.80 m
スパン 9.00 m
形状 Box + pan
製造者 SPXS
バスタイプ Starlink
フェーズステータス In Orbit
所有者/国 SPXS/US

大規模コンステレーション

Loading constellations...